About KSUZ

The Saline County Regional Airport is a modern facility that opened March 12th, 2007. The airport features a 5001 x 100 ft. runway with a full parallel taxiway, ILS approach, RNAV approaches, and medium intensity runway lights, including strobing runway end identifier lights. KSUZ offers 24-hour self-serve 100LL AV Gas and Jet-A with anti-icing additive at competitive prices. These fuels are available via fuel truck Monday - Friday from 8:00AM to 4:30PM. The airport does not charge ramp fees or landing fees and allows overnight stays for transient aircraft free of charge.

Learn More

Fuel Prices

AVGas $5.40
JET-A $4.90

Current Weather

OVERCAST
Wind: 180° at kts Visibility: 9 Miles Altimeter: 29.98 inHg Pressure: 1015 hPA Humidity: 100% Temperature: 55°F (13)°C Dewpoint: 55°F (13)°C
Flight Category: IFR METAR Readout: KSUZ 031315Z AUTO 18008KT 9SM OVC008 13/13 A2998 RMK A01

Contact Us

Address

1100 Hill Farm Rd.
Bryant, AR 72022

Identifier:

KSUZ